TimeCST,TemperatureF,Dew PointF,Humidity,Sea Level PressureIn,VisibilityMPH,Wind Direction,Wind SpeedMPH,Gust SpeedMPH,PrecipitationIn,Events,Conditions,WindDirDegrees,DateUTC
12:53 AM,42.1,28.9,60,30.32,10.0,SSE,12.7,-,N/A,,Clear,160,2012-11-18 06:53:00
1:53 AM,41.0,30.0,65,30.32,10.0,South,12.7,-,N/A,,Clear,170,2012-11-18 07:53:00
2:53 AM,39.9,30.0,68,30.32,10.0,South,12.7,-,N/A,,Clear,170,2012-11-18 08:53:00
3:53 AM,39.9,30.0,68,30.31,9.0,South,10.4,-,N/A,,Clear,170,2012-11-18 09:53:00
4:53 AM,37.9,30.0,73,30.30,9.0,South,10.4,-,N/A,,Clear,170,2012-11-18 10:53:00
5:53 AM,37.9,30.0,73,30.30,9.0,South,10.4,-,N/A,,Clear,170,2012-11-18 11:53:00
6:53 AM,37.0,28.9,73,30.31,9.0,South,11.5,-,N/A,,Clear,170,2012-11-18 12:53:00
7:53 AM,39.9,30.0,68,30.30,9.0,South,12.7,-,N/A,,Clear,170,2012-11-18 13:53:00
8:53 AM,45.0,30.0,56,30.30,10.0,South,13.8,-,N/A,,Clear,180,2012-11-18 14:53:00
9:53 AM,50.0,30.9,48,30.30,10.0,South,12.7,-,N/A,,Clear,180,2012-11-18 15:53:00
10:53 AM,53.1,30.9,43,30.29,10.0,South,10.4,-,N/A,,Clear,180,2012-11-18 16:53:00
11:53 AM,55.0,32.0,42,30.26,10.0,South,11.5,-,N/A,,Clear,170,2012-11-18 17:53:00
12:53 PM,59.0,32.0,36,30.24,10.0,South,12.7,19.6,N/A,,Clear,180,2012-11-18 18:53:00
1:53 PM,60.1,32.0,35,30.23,10.0,South,13.8,-,N/A,,Clear,170,2012-11-18 19:53:00
2:53 PM,57.9,33.1,39,30.22,10.0,SSE,10.4,-,N/A,,Clear,160,2012-11-18 20:53:00
3:53 PM,55.9,33.1,42,30.22,10.0,SSE,10.4,-,N/A,,Clear,150,2012-11-18 21:53:00
4:53 PM,53.1,32.0,45,30.22,10.0,SE,8.1,-,N/A,,Clear,140,2012-11-18 22:53:00
5:53 PM,53.1,32.0,45,30.22,10.0,SE,10.4,-,N/A,,Clear,130,2012-11-18 23:53:00
6:53 PM,52.0,32.0,47,30.22,10.0,SE,9.2,-,N/A,,Clear,130,2012-11-19 00:53:00
7:53 PM,53.1,30.9,43,30.21,10.0,SSE,11.5,-,N/A,,Clear,150,2012-11-19 01:53:00
8:53 PM,52.0,30.9,45,30.22,10.0,SSE,12.7,-,N/A,,Clear,160,2012-11-19 02:53:00
9:53 PM,51.1,30.9,46,30.21,10.0,SSE,12.7,-,N/A,,Clear,160,2012-11-19 03:53:00
10:53 PM,50.0,30.9,48,30.20,10.0,SSE,11.5,-,N/A,,Scattered Clouds,160,2012-11-19 04:53:00
11:53 PM,50.0,30.9,48,30.19,10.0,SSE,12.7,-,N/A,,Mostly Cloudy,160,2012-11-19 05:53:00